Weather reports worldwide

Advertisment
Shobdon, United Kingdom (3520): temperature & dewpoint: 12.07.2019 06:00:00 - 18.07.2019 06:00:00 (BST)Shobdon, United Kingdom (3520): temperature -20cm & temperature -100cm: 12.07.2019 06:00:00 - 18.07.2019 06:00:00 (BST)Shobdon, United Kingdom (3520): wind speed: 12.07.2019 06:00:00 - 18.07.2019 06:00:00 (BST)Shobdon, United Kingdom (3520): wind direction: 12.07.2019 06:00:00 - 18.07.2019 06:00:00 (BST)Shobdon, United Kingdom (3520): reduced air pressure: 12.07.2019 06:00:00 - 18.07.2019 06:00:00 (BST)Shobdon, United Kingdom (3520): visibility: 12.07.2019 06:00:00 - 18.07.2019 06:00:00 (BST)Shobdon, United Kingdom (3520): sunshine duration: 12.07.2019 06:00:00 - 18.07.2019 06:00:00 (BST)Shobdon, United Kingdom (3520): precipitation: 12.07.2019 06:00:00 - 18.07.2019 06:00:00 (BST)
Date & Time tt [°C] td [°C] tt -20cm [°C] tt -100cm [°C] ff [km/h] ff [kn] dd ppp [hPa] vv [km] sd [min] rr [mm]
18.07.2019 06:00:00 15,0 13,6 - - 5 3 W 1008,4 45 0 0,0
18.07.2019 05:00:00 14,9 14,2 - - 4 2 WNW 1008,5 14 0 0,0
18.07.2019 04:00:00 14,8 13,8 - - 4 2 WNW 1008,5 12 0 0,0
18.07.2019 03:00:00 14,8 13,5 - - 2 1 SW 1008,9 17 0 0,0
18.07.2019 02:00:00 15,4 14,0 - - 5 3 SSW 1009,3 20 0 0,0
18.07.2019 01:00:00 15,6 13,7 - - 8 4 WSW 1009,9 6 - 0,0
18.07.2019 00:00:00 16,3 13,0 - - 5 3 SSW 1010,1 26 0 0,0
17.07.2019 23:00:00 16,5 12,9 - - 13 7 WSW 1010,6 26 0 0,0
17.07.2019 22:00:00 16,9 12,5 - - 11 6 SW 1011,1 21 0 0,0
17.07.2019 21:00:00 17,4 12,3 - - 8 4 SSW 1011,1 25 6 0,0
17.07.2019 20:00:00 18,1 11,3 - - 22 12 WSW 1011,1 22 0 0,0
17.07.2019 19:00:00 19,0 12,7 - - 15 8 SW 1011,4 23 0 0,0
17.07.2019 18:00:00 18,8 13,9 - - 15 8 WSW 1011,9 22 0 0,0
17.07.2019 17:00:00 17,7 13,8 - - 16 9 W 1012,8 12 0 0,0
17.07.2019 16:00:00 20,6 13,2 - - 16 9 WSW 1012,4 14 24 0,0
17.07.2019 15:00:00 19,8 12,7 - - 21 11 WSW 1013,3 30 6 0,0
17.07.2019 14:00:00 20,8 13,0 - - 18 10 WSW 1013,4 35 6 0,0
17.07.2019 13:00:00 21,8 14,7 - - 13 7 W 1013,8 30 12 0,0
17.07.2019 12:00:00 20,6 12,4 - - 13 7 WSW 1014,4 35 0 0,0
17.07.2019 11:00:00 20,1 12,8 - - 11 6 WSW 1014,6 30 0 0,0
17.07.2019 10:00:00 18,7 12,4 18,2 16,5 13 7 SW 1014,9 29 18 0,0
17.07.2019 09:00:00 18,3 13,4 - - 5 3 W 1015,2 28 48 0,0
17.07.2019 08:00:00 15,7 13,0 - - 4 2 WSW 1015,5 25 48 0,0
17.07.2019 07:00:00 13,0 12,4 - - 4 2 W 1015,6 20 6 0,0
17.07.2019 06:00:00 10,7 9,8 - - 2 1 NW 1015,9 13 0 0,0
17.07.2019 05:00:00 12,2 11,1 - - 4 2 WNW 1016,1 18 0 0,0
17.07.2019 04:00:00 12,1 10,8 - - 8 4 W 1016,5 14 0 0,0
17.07.2019 03:00:00 13,7 11,7 - - 5 3 WNW 1016,9 26 0 0,0
17.07.2019 02:00:00 13,3 12,5 - - 8 4 NW 1017,4 27 0 0,0
17.07.2019 01:00:00 12,5 10,8 - - 4 2 NNW 1017,8 15 - 0,0
17.07.2019 00:00:00 14,6 11,9 - - 4 2 W 1017,8 30 0 0,0
16.07.2019 23:00:00 16,8 13,7 - - 5 3 W 1017,7 30 0 0,0
16.07.2019 22:00:00 17,3 13,9 - - 5 3 NNW 1017,6 35 0 0,0
16.07.2019 21:00:00 17,8 13,9 - - 4 2 NNW 1017,3 30 0 0,0
16.07.2019 20:00:00 20,6 13,5 - - 8 4 NW 1017,3 30 36 0,0
16.07.2019 19:00:00 22,9 13,7 - - 5 3 W 1017,3 30 18 0,0
16.07.2019 18:00:00 21,7 14,3 - - 9 5 SW 1017,7 27 0 0,0
16.07.2019 17:00:00 21,2 14,1 - - 8 4 WSW 1017,9 15 0 0,0
16.07.2019 16:00:00 22,3 13,9 - - 4 2 WNW 1018,1 30 0 0,0
16.07.2019 15:00:00 23,1 11,2 - - 4 2 E 1018,2 40 42 0,0
16.07.2019 14:00:00 23,5 11,2 - - 5 3 SSE 1018,5 40 30 0,0
16.07.2019 13:00:00 20,7 14,9 - - 5 3 WNW 1018,9 35 0 0,0
16.07.2019 12:00:00 22,2 12,7 - - 2 1 NE 1019,0 35 30 0,0
16.07.2019 11:00:00 21,0 13,0 - - 5 3 N 1019,4 27 48 0,0
16.07.2019 10:00:00 20,7 14,0 18,2 16,5 4 2 ESE 1019,7 27 60 -
16.07.2019 09:00:00 18,6 13,6 - - 4 2 SW 1020,0 22 60 0,0
16.07.2019 08:00:00 17,0 13,5 - - 4 2 ESE 1020,2 21 54 0,0
16.07.2019 07:00:00 15,0 13,2 - - 4 2 WNW 1020,3 26 18 0,0
16.07.2019 06:00:00 12,5 11,5 - - 5 3 NW 1020,3 14 0 0,0
16.07.2019 05:00:00 13,3 12,2 - - 4 2 W 1020,2 10 0 0,0
16.07.2019 04:00:00 13,7 12,3 - - 5 3 NW 1020,2 19 0 0,0
16.07.2019 03:00:00 13,7 13,0 - - 5 3 NW 1020,4 14 0 0,0
16.07.2019 02:00:00 12,1 11,4 - - 2 1 NE 1020,8 9 0 0,0
16.07.2019 01:00:00 12,1 11,4 - - 2 1 WSW 1021,1 13 - 0,0
16.07.2019 00:00:00 12,6 11,2 - - 2 1 ENE 1021,1 17 0 0,0
15.07.2019 23:00:00 14,1 12,3 - - 2 1 ENE 1021,1 22 0 0,0
15.07.2019 22:00:00 15,1 12,9 - - 2 1 ENE 1021,0 25 0 0,0
15.07.2019 21:00:00 19,0 12,7 - - 5 3 SE 1020,6 35 0 0,0
15.07.2019 20:00:00 21,3 13,3 - - 5 3 SE 1020,3 35 24 0,0
15.07.2019 19:00:00 22,6 11,6 - - 4 2 SSW 1020,2 45 48 0,0
15.07.2019 18:00:00 22,1 12,2 - - 8 4 ESE 1020,4 40 36 0,0
15.07.2019 17:00:00 23,1 12,5 - - 5 3 SE 1020,9 40 42 0,0
15.07.2019 16:00:00 22,5 12,8 - - 9 5 E 1021,4 40 24 0,0
15.07.2019 15:00:00 21,4 11,4 - - 9 5 S 1021,7 35 48 0,0
15.07.2019 14:00:00 21,4 12,2 - - 11 6 E 1022,2 40 60 0,0
15.07.2019 13:00:00 20,7 12,5 - - 9 5 ESE 1022,7 40 48 0,0
15.07.2019 12:00:00 18,9 11,4 - - 8 4 S 1023,1 35 60 0,0
15.07.2019 11:00:00 18,6 12,1 - - 8 4 SSW 1023,2 35 60 0,0
15.07.2019 10:00:00 17,2 12,1 17,7 16,5 8 4 S 1023,5 40 60 0,0
15.07.2019 09:00:00 16,2 12,2 - - 8 4 ESE 1023,8 35 60 0,0
15.07.2019 08:00:00 14,2 13,0 - - 5 3 E 1024,0 22 60 0,0
15.07.2019 07:00:00 10,9 10,5 - - 2 1 S 1024,0 17 12 0,0
15.07.2019 06:00:00 7,8 7,3 - - 2 1 S 1024,2 6 0 0,0
15.07.2019 05:00:00 8,7 8,2 - - 0 0 N 1024,2 6 0 0,0
15.07.2019 04:00:00 8,4 7,8 - - 5 3 E 1024,2 7 0 0,0
15.07.2019 03:00:00 8,6 8,1 - - 2 1 NW 1024,6 9 0 0,0
15.07.2019 02:00:00 8,4 7,7 - - 4 2 E 1024,5 5 0 0,0
15.07.2019 01:00:00 9,3 8,6 - - 0 0 N 1024,4 11 - 0,0
15.07.2019 00:00:00 10,0 9,1 - - 0 0 N 1024,3 15 0 0,0
14.07.2019 23:00:00 11,4 10,3 - - 4 2 W 1024,1 19 0 0,0
14.07.2019 22:00:00 13,2 11,0 - - 5 3 ENE 1023,8 30 0 0,0
14.07.2019 21:00:00 17,3 12,2 - - 8 4 ENE 1023,3 35 54 0,0
14.07.2019 20:00:00 19,7 12,9 - - 8 4 E 1023,1 35 54 0,0
14.07.2019 19:00:00 20,3 12,5 - - 9 5 E 1023,3 40 60 0,0
14.07.2019 18:00:00 20,3 12,9 - - 9 5 E 1023,5 40 36 0,0
14.07.2019 17:00:00 20,3 13,9 - - 11 6 ENE 1023,9 40 6 0,0
14.07.2019 16:00:00 19,3 13,1 - - 9 5 ENE 1024,2 35 0 0,0
14.07.2019 15:00:00 19,1 13,4 - - 9 5 E 1024,2 29 0 0,0
14.07.2019 14:00:00 18,3 13,7 - - 13 7 E 1024,3 26 0 0,0
14.07.2019 13:00:00 18,2 12,8 - - 8 4 ESE 1024,4 30 6 0,0
14.07.2019 12:00:00 18,6 13,6 - - 8 4 E 1024,2 24 6 0,0
14.07.2019 11:00:00 17,1 12,9 - - 8 4 ENE 1024,4 25 0 0,0
14.07.2019 10:00:00 16,2 12,4 18,0 16,4 5 3 E 1024,4 26 6 0,0
14.07.2019 09:00:00 15,2 11,9 - - 8 4 NE 1024,4 29 30 0,0
14.07.2019 08:00:00 13,4 11,3 - - 4 2 ESE 1024,4 30 60 0,0
14.07.2019 07:00:00 10,4 10,0 - - 4 2 WNW 1024,3 30 42 0,0
14.07.2019 06:00:00 7,2 6,6 - - 2 1 SSE 1024,6 16 0 0,0
14.07.2019 05:00:00 8,2 7,1 - - 2 1 ENE 1024,4 17 0 0,0
14.07.2019 04:00:00 9,1 8,4 - - 8 4 NW 1024,5 28 0 0,0
14.07.2019 03:00:00 9,5 8,7 - - 8 4 NW 1024,8 29 0 0,0
14.07.2019 02:00:00 9,1 8,2 - - 5 3 NNW 1025,0 24 0 0,0
14.07.2019 01:00:00 11,0 9,3 - - 2 1 WSW 1024,8 22 - 0,0
14.07.2019 00:00:00 12,1 11,1 - - 8 4 WNW 1024,7 28 0 0,0
13.07.2019 23:00:00 12,9 11,0 - - 5 3 W 1024,6 30 0 0,0
13.07.2019 22:00:00 14,9 11,8 - - 4 2 N 1024,2 35 0 0,0
13.07.2019 21:00:00 16,4 12,0 - - 8 4 N 1023,7 35 36 0,0
13.07.2019 20:00:00 17,8 12,7 - - 9 5 N 1023,5 35 60 0,0
13.07.2019 19:00:00 18,8 12,2 - - 13 7 NNE 1023,4 50 30 0,0
13.07.2019 18:00:00 18,9 12,8 - - 11 6 N 1023,3 40 0 0,0
13.07.2019 17:00:00 19,5 11,6 - - 9 5 NNE 1023,3 35 18 0,0
13.07.2019 16:00:00 19,6 11,3 - - 8 4 N 1023,3 40 18 0,0
13.07.2019 15:00:00 20,1 12,3 - - 11 6 N 1023,2 23 24 0,0
13.07.2019 14:00:00 19,4 11,8 - - 9 5 N 1023,5 16 36 0,0
13.07.2019 13:00:00 17,6 11,5 - - 8 4 N 1023,9 45 0 0,0
13.07.2019 12:00:00 17,4 10,8 - - 11 6 N 1023,9 45 0 0,0
13.07.2019 11:00:00 17,1 10,5 - - 11 6 NNW 1023,7 45 0 0,0
13.07.2019 10:00:00 16,3 11,3 18,2 16,4 9 5 N 1023,6 45 0 0,0
13.07.2019 09:00:00 16,1 11,5 - - 8 4 NNW 1023,4 50 0 0,0
13.07.2019 08:00:00 15,2 12,1 - - 8 4 N 1023,1 45 0 0,0
13.07.2019 07:00:00 14,5 12,0 - - 9 5 NNW 1022,9 50 0 0,0
13.07.2019 06:00:00 14,5 12,7 - - 4 2 N 1022,6 17 0 0,0
13.07.2019 05:00:00 14,8 12,9 - - 5 3 NNE 1022,1 40 0 0,0
13.07.2019 04:00:00 15,1 12,9 - - 0 0 N 1022,0 40 0 0,0
13.07.2019 03:00:00 15,3 12,8 - - 4 2 NNE 1021,8 40 0 0,0
13.07.2019 02:00:00 15,6 12,9 - - 5 3 NNW 1022,0 40 0 0,0
13.07.2019 01:00:00 14,9 12,6 - - 5 3 WNW 1022,0 40 - 0,0
13.07.2019 00:00:00 12,9 10,9 - - 4 2 W 1021,8 35 0 0,0
12.07.2019 23:00:00 14,7 11,9 - - 8 4 NW 1021,5 40 0 0,0
12.07.2019 22:00:00 15,8 11,9 - - 8 4 NW 1020,9 45 0 0,0
12.07.2019 21:00:00 17,6 12,4 - - 11 6 NW 1020,1 45 6 0,0
12.07.2019 20:00:00 19,1 11,9 - - 9 5 NNW 1019,7 55 12 0,0
12.07.2019 19:00:00 19,2 12,3 - - 13 7 N 1019,2 50 18 0,0
12.07.2019 18:00:00 20,7 13,2 - - 13 7 N 1018,3 45 30 0,0
12.07.2019 17:00:00 20,6 13,6 - - 13 7 N 1018,0 60 18 0,0
12.07.2019 16:00:00 21,1 11,8 - - 15 8 NW 1017,5 50 30 0,0
12.07.2019 15:00:00 20,7 13,0 - - 15 8 NNW 1017,4 50 30 0,0
12.07.2019 14:00:00 21,2 13,8 - - 11 6 NNW 1017,0 13 18 0,0
12.07.2019 13:00:00 20,6 12,6 - - 15 8 N 1016,6 45 24 0,0
12.07.2019 12:00:00 21,0 13,2 - - 16 9 NNW 1016,1 14 42 0,0
12.07.2019 11:00:00 20,5 13,2 - - 13 7 NNW 1015,9 40 54 0,0
12.07.2019 10:00:00 18,8 12,8 18,0 16,4 11 6 NNW 1015,6 45 42 0,0
12.07.2019 09:00:00 18,7 13,9 - - 11 6 NW 1015,4 30 24 0,0
12.07.2019 08:00:00 17,4 13,5 - - 4 2 NW 1015,1 35 54 0,0
12.07.2019 07:00:00 15,3 13,6 - - 8 4 NW 1014,8 30 18 0,0
12.07.2019 06:00:00 12,4 11,4 - - 5 3 NW 1014,4 17 0 0,0

tt = temperature
td = dewpoint
tt -20cm = temperature -20cm
tt -100cm = temperature -100cm
ff = wind speed
dd = wind direction
ppp = reduced air pressure
vv = visibility
sd = sunshine duration
rr = precipitation

Next stations